Weather Roundup
Issued by NWS Chicago, IL

Home | Current Version | Previous Version | Text Only | Print | Product List | Glossary Off
Versions: 1 2 3 4 5 6 7 8 9 10 11 12 13 14 15 16 17 18 19 20 21 22 23 24 25 26 27 28 29 30 31 32 33 34 35 36 37 38 39 40 41 42 43 44 45 46 47 48 49 50

000
NZUS59 KLOT 011110
HRRLOT

CHICAGO AREA WEATHER ROUNDUP
NATIONAL WEATHER SERVICE CHICAGO/ROMEOVILLE IL
600 AM CDT WED OCT 01 2014

NOTE: "FAIR" INDICATES FEW OR NO CLOUDS BELOW 12,000 FEET WITH NO
SIGNIFICANT WEATHER AND/OR OBSTRUCTIONS TO VISIBILITY.

* THESE STATIONS ARE NOT UNDER NWS QUALITY CONTROL. THEY ALSO MAY NOT
  REPORT WEATHER SUCH AS PRECIPITATION OR FOG.

ILZ005-006-012>014-019>023-011200-
NORTHEAST ILLINOIS

CITY           SKY/WX    TMP DP  RH WIND       PRES   REMARKS
OHARE          PTCLDY    49  44  83 S6        30.00S
MIDWAY         PTCLDY    53  47  79 SE5       30.01R
AURORA         CLEAR     48  44  86 E6        30.00S
LANSING*       CLEAR     43  42  97 CALM      30.01R FOG
JOLIET*        CLEAR     46  44  91 E5        30.00S
WAUKEGAN       NOT AVBL
DUPAGE AIRPORT CLEAR     49  44  83 E6        29.99S
WHEELING       CLOUDY    56  47  71 S7        30.02R
KANKAKEE*      CLEAR     45  44  97 E6        30.01R
MORRIS*        CLEAR     47  46  97 E3        29.99S
LEWIS AIRPORT* CLEAR     47  46  96 E7        30.00S
NORTHERLY IS     N/A     56  47  71 SE12        N/A
$$

WIZ051-052-058>065-066-070>072-011200-
SOUTHEAST WISCONSIN

CITY           SKY/WX    TMP DP  RH WIND       PRES   REMARKS
MILWAUKEE      CLOUDY    55  48  77 S8        30.00S
KENOSHA*       CLOUDY    56  48  74 S8        30.01R
RACINE*        CLOUDY    57  48  72 S10       30.02R
BURLINGTON     CLOUDY    51  47  86 SE7       30.00S
WAUKESHA       CLOUDY    52  48  87 SE7       30.01R
WEST BEND      CLOUDY    50  46  87 CALM      30.00S
$$

INZ001>003-010>013-019-020-011200-
NORTHWEST INDIANA

CITY           SKY/WX    TMP DP  RH WIND       PRES   REMARKS
GARY*          PTCLDY    48  46  93 E6        30.02S
MICHIGAN CITY* NOT AVBL
RENSSELAER*    NOT AVBL
VALPARAISO     CLEAR     44  43  96 E5        30.02S
$$

LMZ740>746-011200-
SOUTHERN LAKE MICHIGAN

STATION/POSITION TIME  SKY/WX   TEMP WIND        PRES    VSBY
                                AIR  DIR/SP/G
                 (UTC)          (F)  (DEG/KT/KT) (MB)    (MI)
HARRISON CRIB    1100            56  140/ 15/ 18   N/A
BURNHAM HARBOR   1100            56  150/  9/ 13   N/A
CALUMET HARBOR   1100            56  110/  7/ 12 1014.9R
BURNS HARBOR     NOT AVBL
MICHIGAN CITY    1100            53   80/  4/  5   N/A
$$

ABBREVIATIONS USED IN REMARKS
   TC - TEMPERATURE IN CELSIUS
  WCI - WIND CHILL INDEX
   HX - HEAT INDEX
  VSB - VISIBILITY
$$


USA.gov is the U.S. government's official web portal to all federal, state and local government web resources and services.